Weather reports worldwide

Advertisment
Rostherne No 2, United Kingdom (3351): temperature & dewpoint: 22.03.2020 21:00:00 - 28.03.2020 21:00:00 (GMT)Rostherne No 2, United Kingdom (3351): wind speed & gusts: 22.03.2020 21:00:00 - 28.03.2020 21:00:00 (GMT)Rostherne No 2, United Kingdom (3351): wind direction: 22.03.2020 21:00:00 - 28.03.2020 21:00:00 (GMT)Rostherne No 2, United Kingdom (3351): reduced air pressure: 22.03.2020 21:00:00 - 28.03.2020 21:00:00 (GMT)Rostherne No 2, United Kingdom (3351): visibility: 22.03.2020 21:00:00 - 28.03.2020 21:00:00 (GMT)Rostherne No 2, United Kingdom (3351): sunshine duration: 22.03.2020 21:00:00 - 28.03.2020 21:00:00 (GMT)Rostherne No 2, United Kingdom (3351): precipitation: 22.03.2020 21:00:00 - 28.03.2020 21:00:00 (GMT)
Date & Time tt [°C] td [°C] ff [km/h] ff [kn] fx [km/h] fx [kn] dd ppp [hPa] vv [km] sd [min] rr [mm]
28.03.2020 21:00:00 4,3 -1,2 13 7 - - NNE 1039,1 20 0 0,0
28.03.2020 20:00:00 4,8 -2,0 18 10 - - NNE 1038,6 28 0 0,0
28.03.2020 19:00:00 5,7 -1,8 22 12 - - NE 1037,7 29 0 0,0
28.03.2020 18:00:00 7,0 0,0 18 10 - - NE 1036,8 35 0 0,0
28.03.2020 17:00:00 8,2 -1,4 18 10 - - NE 1035,9 35 6 0,0
28.03.2020 16:00:00 9,0 1,0 15 8 46 25 NE 1035,5 28 6 0,0
28.03.2020 15:00:00 9,6 -0,1 22 12 - - NE 1034,9 30 0 0,0
28.03.2020 14:00:00 9,4 2,4 18 10 46 25 ENE 1034,7 45 12 0,0
28.03.2020 13:00:00 10,2 0,7 21 11 - - ENE 1034,4 45 24 0,0
28.03.2020 12:00:00 9,7 1,6 16 9 - - NE 1034,3 30 6 0,0
28.03.2020 11:00:00 9,2 1,1 21 11 48 26 NE 1034,2 40 24 0,0
28.03.2020 10:00:00 8,2 1,9 16 9 - - NE 1033,9 35 6 0,0
28.03.2020 09:00:00 7,8 1,0 26 14 - - ENE 1033,5 40 18 0,0
28.03.2020 08:00:00 7,3 2,2 16 9 - - NE 1032,9 30 0 0,0
28.03.2020 07:00:00 6,3 1,6 15 8 - - NNE 1032,4 45 0 0,0
28.03.2020 06:00:00 5,9 0,8 13 7 - - NE 1031,8 40 0 0,0
28.03.2020 05:00:00 7,0 4,1 13 7 - - NE 1031,2 27 0 0,0
28.03.2020 04:00:00 6,7 3,7 13 7 - - ENE 1030,9 21 0 0,0
28.03.2020 03:00:00 5,6 3,0 5 3 - - NE 1030,8 14 0 0,0
28.03.2020 02:00:00 4,9 2,0 15 8 - - NE 1030,8 10 0 0,0
28.03.2020 01:00:00 4,4 1,4 13 7 - - NE 1030,6 9 0 0,0
28.03.2020 00:00:00 4,5 0,9 9 5 - - NE 1030,7 10 - 0,0
27.03.2020 23:00:00 4,2 -1,4 9 5 - - NE 1030,4 18 0 0,0
27.03.2020 22:00:00 4,7 -4,7 8 4 - - ENE 1030,0 25 0 0,0
27.03.2020 21:00:00 6,6 -5,1 15 8 - - NE 1029,3 30 0 0,0
27.03.2020 20:00:00 7,9 -1,5 11 6 - - NE 1028,7 24 0 0,0
27.03.2020 19:00:00 8,9 -4,4 13 7 - - E 1028,0 35 18 0,0
27.03.2020 18:00:00 10,6 -3,2 15 8 - - E 1027,4 30 60 0,0
27.03.2020 17:00:00 11,8 -3,3 18 10 - - E 1026,8 22 60 0,0
27.03.2020 16:00:00 12,1 -0,2 16 9 - - ENE 1026,6 24 60 0,0
27.03.2020 15:00:00 12,1 -0,3 18 10 - - E 1026,8 23 60 0,0
27.03.2020 14:00:00 12,2 -1,9 16 9 - - NNE 1026,9 35 60 0,0
27.03.2020 13:00:00 11,4 -3,4 15 8 - - NNE 1027,5 24 60 0,0
27.03.2020 12:00:00 9,9 -2,7 11 6 - - ENE 1028,1 21 60 0,0
27.03.2020 11:00:00 8,7 0,8 9 5 - - SE 1028,4 16 60 0,0
27.03.2020 10:00:00 7,4 -0,6 9 5 - - SE 1028,3 26 60 0,0
27.03.2020 09:00:00 5,6 -0,4 5 3 - - NE 1028,1 13 60 0,0
27.03.2020 08:00:00 3,6 1,2 8 4 - - NE 1027,5 8 60 0,0
27.03.2020 07:00:00 0,5 -0,1 4 2 - - SE 1027,2 6 36 0,0
27.03.2020 06:00:00 -2,8 -3,3 2 1 - - NNW 1027,1 3,4 0 0,0
27.03.2020 05:00:00 -2,7 -3,4 4 2 - - E 1027,0 5 0 0,0
27.03.2020 04:00:00 -1,7 -2,3 4 2 - - SSE 1026,7 5 0 0,0
27.03.2020 03:00:00 -1,3 -2,1 0 0 - - N 1026,8 7 0 0,0
27.03.2020 02:00:00 -0,2 -1,1 2 1 - - WSW 1026,7 7 0 0,0
27.03.2020 01:00:00 0,6 -0,9 4 2 - - S 1026,5 6 0 0,0
27.03.2020 00:00:00 3,1 -0,5 5 3 - - E 1026,2 15 - 0,0
26.03.2020 23:00:00 3,1 -1,0 4 2 - - ENE 1026,1 17 0 0,0
26.03.2020 22:00:00 5,8 -1,6 5 3 - - ESE 1025,7 17 0 0,0
26.03.2020 21:00:00 7,3 -0,6 4 2 - - ESE 1025,5 21 0 0,0
26.03.2020 20:00:00 9,5 -0,4 9 5 - - E 1025,4 20 0 0,0
26.03.2020 19:00:00 10,9 -0,9 8 4 - - ENE 1024,8 22 18 0,0
26.03.2020 18:00:00 12,6 -1,8 11 6 - - ESE 1024,1 26 60 0,0
26.03.2020 17:00:00 14,3 -4,9 13 7 - - SE 1024,1 35 60 0,0
26.03.2020 16:00:00 15,0 -5,0 15 8 - - SE 1023,9 25 60 0,0
26.03.2020 15:00:00 15,4 -6,6 13 7 - - SE 1024,1 50 60 0,0
26.03.2020 14:00:00 15,7 -10,0 13 7 - - E 1024,4 24 60 0,0
26.03.2020 13:00:00 14,9 -7,9 15 8 - - ESE 1024,7 40 60 0,0
26.03.2020 12:00:00 14,1 -2,3 5 3 - - ESE 1025,0 24 60 0,0
26.03.2020 11:00:00 13,3 0,6 4 2 - - WNW 1025,3 19 60 0,0
26.03.2020 10:00:00 10,6 1,7 5 3 - - NW 1025,5 15 60 0,0
26.03.2020 09:00:00 7,7 2,0 4 2 - - NW 1025,5 20 60 0,0
26.03.2020 08:00:00 3,8 2,1 2 1 - - SE 1025,4 16 60 0,0
26.03.2020 07:00:00 -0,5 -1,0 2 1 - - E 1025,4 12 36 0,0
26.03.2020 06:00:00 -1,4 -1,9 4 2 - - SSE 1025,2 6 0 0,0
26.03.2020 05:00:00 -0,9 -1,4 0 0 - - N 1025,1 6 0 0,0
26.03.2020 04:00:00 0,0 -0,5 2 1 - - ESE 1024,8 9 0 0,0
26.03.2020 03:00:00 -0,5 -1,3 4 2 - - ESE 1024,7 6 0 0,0
26.03.2020 02:00:00 0,7 -0,3 4 2 - - SSE 1024,6 10 0 0,0
26.03.2020 01:00:00 1,9 0,3 2 1 - - ESE 1024,4 11 0 0,0
26.03.2020 00:00:00 2,1 0,1 4 2 - - ESE 1024,3 11 - 0,0
25.03.2020 23:00:00 3,8 0,9 8 4 - - SSE 1024,2 20 0 0,0
25.03.2020 22:00:00 4,8 1,3 5 3 - - SE 1024,1 21 0 0,0
25.03.2020 21:00:00 5,9 1,2 5 3 - - SE 1024,0 30 0 0,0
25.03.2020 20:00:00 8,4 -0,8 5 3 - - SE 1023,7 30 0 0,0
25.03.2020 19:00:00 11,2 -1,8 9 5 - - SSE 1023,1 40 18 0,0
25.03.2020 18:00:00 13,2 -0,8 9 5 - - SSE 1022,7 40 60 0,0
25.03.2020 17:00:00 16,1 -1,8 8 4 - - S 1022,5 40 60 0,0
25.03.2020 16:00:00 16,7 0,6 9 5 - - S 1022,5 30 60 0,0
25.03.2020 15:00:00 16,8 1,9 9 5 - - S 1022,8 35 60 0,0
25.03.2020 14:00:00 - - - - - - - - - - 0,0
25.03.2020 13:00:00 15,8 2,2 8 4 - - S 1023,5 24 60 0,0
25.03.2020 12:00:00 14,4 2,7 9 5 - - S 1023,6 30 60 0,0
25.03.2020 11:00:00 13,4 4,5 8 4 - - S 1023,8 20 60 0,0
25.03.2020 10:00:00 11,5 2,5 9 5 - - S 1023,9 23 60 0,0
25.03.2020 09:00:00 9,3 0,1 11 6 - - S 1024,0 50 60 0,0
25.03.2020 08:00:00 7,2 0,2 9 5 - - SSE 1024,0 35 60 0,0
25.03.2020 07:00:00 5,0 -0,2 8 4 - - SE 1023,8 29 24 0,0
25.03.2020 06:00:00 4,6 -1,0 8 4 - - SSE 1023,4 35 0 0,0
25.03.2020 05:00:00 6,7 -0,2 11 6 - - S 1023,1 35 0 0,0
25.03.2020 04:00:00 6,8 1,9 13 7 - - S 1022,8 27 0 0,0
25.03.2020 03:00:00 5,3 2,2 8 4 - - SSE 1022,8 17 0 0,0
25.03.2020 02:00:00 8,2 3,9 9 5 - - S 1022,7 17 0 0,0
25.03.2020 01:00:00 9,4 4,6 9 5 - - SSW 1022,6 18 0 0,0
25.03.2020 00:00:00 10,6 5,7 11 6 - - S 1022,2 20 - 0,0
24.03.2020 23:00:00 11,3 6,1 15 8 - - S 1021,9 17 0 0,0
24.03.2020 22:00:00 12,1 6,6 15 8 - - S 1021,7 21 0 0,0
24.03.2020 21:00:00 12,9 7,2 16 9 - - S 1021,5 17 0 0,0
24.03.2020 20:00:00 13,7 7,5 18 10 - - S 1021,4 18 0 0,0
24.03.2020 19:00:00 14,4 7,8 16 9 - - S 1020,9 20 0 0,0
24.03.2020 18:00:00 15,0 7,9 15 8 - - S 1020,5 23 0 0,0
24.03.2020 17:00:00 15,9 8,1 18 10 - - S 1020,3 25 6 0,0
24.03.2020 16:00:00 16,3 7,9 18 10 - - S 1020,3 23 54 0,0
24.03.2020 15:00:00 16,2 7,8 21 11 - - S 1020,9 28 60 0,0
24.03.2020 14:00:00 15,9 7,9 16 9 - - S 1021,4 24 60 0,0
24.03.2020 13:00:00 14,7 7,2 22 12 - - S 1021,9 21 60 0,0
24.03.2020 12:00:00 13,4 6,2 16 9 - - S 1022,4 27 60 0,0
24.03.2020 11:00:00 11,5 4,3 21 11 - - S 1022,6 30 60 0,0
24.03.2020 10:00:00 10,1 2,9 15 8 - - S 1023,0 19 60 0,0
24.03.2020 09:00:00 7,5 0,8 16 9 - - S 1023,2 24 60 0,0
24.03.2020 08:00:00 5,4 0,0 22 12 - - SSE 1023,0 27 6 0,0
24.03.2020 07:00:00 3,9 -0,9 16 9 - - SSE 1023,2 27 0 0,0
24.03.2020 06:00:00 2,7 -1,8 11 6 - - SE 1022,9 29 0 0,0
24.03.2020 05:00:00 2,1 -1,9 9 5 - - SE 1023,0 30 0 0,0
24.03.2020 04:00:00 2,1 -1,9 9 5 - - SE 1023,1 30 0 0,0
24.03.2020 03:00:00 2,2 -1,9 11 6 - - SE 1023,4 30 0 0,0
24.03.2020 02:00:00 3,7 -1,6 9 5 - - SE 1024,2 30 0 0,0
24.03.2020 01:00:00 4,2 -0,9 15 8 - - SSE 1024,5 30 0 0,0
24.03.2020 00:00:00 2,5 -1,4 9 5 - - SE 1024,6 30 - 0,0
23.03.2020 23:00:00 3,7 -1,4 4 2 - - E 1025,0 30 0 0,0
23.03.2020 22:00:00 4,8 -0,9 11 6 - - SE 1024,4 30 0 0,0
23.03.2020 21:00:00 6,3 -1,0 5 3 - - SE 1024,2 35 0 0,0
23.03.2020 20:00:00 6,9 -0,1 13 7 - - SE 1023,7 35 0 0,0
23.03.2020 19:00:00 7,1 -0,9 9 5 - - SSE 1023,9 45 0 0,0
23.03.2020 18:00:00 9,7 -0,2 15 8 - - SSE 1023,8 35 24 0,0
23.03.2020 17:00:00 12,0 -0,8 18 10 - - SSE 1024,1 40 60 0,0
23.03.2020 16:00:00 12,4 -0,8 13 7 - - S 1024,1 40 42 0,0
23.03.2020 15:00:00 12,0 -0,6 18 10 - - SSE 1024,2 30 60 0,0
23.03.2020 14:00:00 12,2 0,4 16 9 - - S 1024,8 35 60 0,0
23.03.2020 13:00:00 10,7 -0,1 13 7 - - S 1025,3 35 60 0,0
23.03.2020 12:00:00 9,8 1,5 15 8 - - S 1025,7 40 60 0,0
23.03.2020 11:00:00 7,7 -0,4 21 11 - - SSE 1026,0 29 60 0,0
23.03.2020 10:00:00 6,9 -0,1 18 10 - - SSE 1026,6 25 36 0,0
23.03.2020 09:00:00 5,2 -0,7 11 6 - - SSE 1027,3 30 0 0,0
23.03.2020 08:00:00 3,4 0,2 13 7 - - SE 1026,6 24 36 0,0
23.03.2020 07:00:00 -0,4 -0,9 4 2 - - SSE 1027,4 17 30 0,0
23.03.2020 06:00:00 -1,9 -3,0 2 1 - - SSE 1027,5 15 0 0,0
23.03.2020 05:00:00 -1,2 -2,8 4 2 - - NNW 1027,9 18 0 0,0
23.03.2020 04:00:00 0,8 -2,0 5 3 - - S 1027,2 29 0 0,0
23.03.2020 03:00:00 1,3 -1,8 5 3 - - SSE 1026,7 35 0 0,0
23.03.2020 02:00:00 2,2 -2,1 4 2 - - SSE 1027,0 35 0 0,0
23.03.2020 01:00:00 2,5 -2,2 8 4 - - ESE 1027,4 40 0 0,0
23.03.2020 00:00:00 3,1 -1,3 15 8 - - SE 1027,9 30 - 0,0
22.03.2020 23:00:00 2,9 -0,8 11 6 - - SE 1028,5 23 0 0,0
22.03.2020 22:00:00 3,5 0,0 18 10 - - SE 1028,6 24 0 0,0
22.03.2020 21:00:00 3,8 -0,3 8 4 - - ESE 1028,3 30 0 0,0

tt = temperature
td = dewpoint
ff = wind speed
fx = gusts
dd = wind direction
ppp = reduced air pressure
vv = visibility
sd = sunshine duration
rr = precipitation

Next stations